Other Public Products
Issued by NWS Grand Forks, ND

Home | Current Version | Previous Version | Text Only | Print | Product List | Glossary Off
Versions: 1 2 3 4 5 6 7 8 9 10 11 12 13 14 15 16 17 18 19 20 21 22 23 24 25 26 27 28 29 30 31 32 33 34 35 36 37 38 39 40 41 42 43 44 45 46 47 48 49 50

000
FPUS83 KFGF 231510
OPUFGF
PRAIRIE TO PINES WEATHER ROUNDUP
NATIONAL WEATHER SERVICE EASTERN NORTH DAKOTA/GRAND FORKS ND
1000 AM CDT SAT AUG 23 2014

 **SATELLITE DATA USED TO AUGMENT SKY COVER AT AUTOMATED STATIONS**
 *****  WEATHER ACROSS EASTERN NORTH DAKOTA  *****

CITY           SKY/WX    TMP DP  RH WIND       PRES   REMARKS
GRAND FORKS    FOG       60  60 100 N13       30.04F VSB 1/4
GRAND FORKS AF CLOUDY    59  59 100 NE10      30.05F FOG
GRAND CITY NWS   N/A     45 N/A N/A N12         N/A
BUXTON         NOT AVBL
DEVILS LAKE    CLOUDY    57  52  82 NE12      30.04F
FARGO          CLOUDY    71  68  90 NE7       29.98F
WAHPETON ARPT  CLOUDY    70  64  83 E5        29.98R
$$

 *****  WEATHER ACROSS CENTRAL AND WESTERN NORTH DAKOTA  *****

CITY           SKY/WX    TMP DP  RH WIND       PRES   REMARKS
JAMESTOWN      CLOUDY    61  60  97 NE10      30.00F FOG
BISMARCK       LGT RAIN  60  59  96 NE15      30.00F
MINOT          CLOUDY    57  52  83 NE14      30.08S
MINOT AFB      CLOUDY    58  56  94 NE12      30.08S
GARRISON         N/A     57  55  93 NE9       30.05R
WILLISTON      LGT RAIN  56  53  90 NE13      30.07S
DICKINSON      LGT RAIN  57  56  96 NE16      29.97F
HETTINGER      RAIN      59  57  93 E21G26    29.95S FOG
$$

 *****  OTHER OBSERVATIONS NORTHEAST NORTH DAKOTA  *****

CITY           SKY/WX    TMP DP  RH WIND       PRES   REMARKS
WALHALLA         N/A     57  57 100 N12       30.10S FOG
LANGDON        CLOUDY    57  55  94 NE12      30.09S
CAVALIER       CLOUDY    57  57 100 N10       30.09S FOG
GRAFTON        CLOUDY    57  57 100 N13       30.06F
CANDO          CLOUDY    57  55  94 NE14      30.08F
FORT TOTTEN      N/A     59  58  97 NE6       29.95
ROLLA          PTSUNNY   54  54 100 NE12      30.12S FOG
RUGBY          CLOUDY    55  55 100 NE16      30.08S
 ***** THE ABOVE OBSERVATIONS ARE NON NWS ARE NOT QUALITY
        CONTROLLED AND MAY MIS-REPORT RAIN FOR SNOW...
$$

 *****  OTHER OBSERVATIONS SOUTHEAST NORTH DAKOTA *****

CITY           SKY/WX    TMP DP  RH WIND       PRES   REMARKS
COOPERSTOWN    NOT AVBL
VALLEY CITY    CLOUDY    59  59 100 NE8G18    30.01S FOG
OAKES            N/A     63  63 100 NE13      29.96F
GWINNER        CLOUDY    64  64 100 NE9       29.98S
SHEYENNE NWR     N/A     65  65  99 NE6       29.95
BUFFALO        NOT AVBL
WYNDMERE       NOT AVBL
 ***** THE ABOVE OBSERVATIONS ARE NON NWS ARE NOT QUALITY
       CONTROLLED AND MAY MIS-REPORT RAIN FOR SNOW...
$$

  *****  WEATHER ACROSS NORTHERN MINNESOTA  *****

CITY           SKY/WX    TMP DP  RH WIND       PRES   REMARKS
FLAG ISLAND    PTSUNNY   70  64  83 NE3       30.08R
WARROAD        PTSUNNY   68  64  88 NE7       30.09R
ROSEAU         PTSUNNY   66  61  82 NE7       30.08S
HALLOCK        CLOUDY    61  59  94 NE9       30.07R
THF RVR FALLS  CLOUDY    66  64  94 NE9       30.05S
HALSTAD          N/A     70  68  93 E8          N/A
FOSSTON        CLOUDY    70  68  94 NE7       30.04S
BAUDETTE       CLOUDY    69  66  90 E7        30.08R
WASKISH        CLOUDY    70  68  94 E7        30.06F
CROOKSTON      CLOUDY    66  66 100 E8        30.04S
$$
  *****  WEATHER ACROSS CENTRAL AND WEST MINNESOTA  *****

CITY           SKY/WX    TMP DP  RH WIND       PRES   REMARKS
BEMIDJI        CLOUDY    67  66  97 SE7       30.05R
PARK RAPIDS    CLOUDY    67  64  90 E10       30.03S
WADENA         CLOUDY    66  64  94 E8G16     30.01F
DETROIT LAKES  CLOUDY    70  66  88 E6        30.02F
MOORHEAD       CLOUDY    72  72 100 E5        29.99F
FERGUS FALLS   CLOUDY    72  66  83 E7        29.98S
ELBOW LAKE     CLOUDY    69  65  88 E13       29.98S
MORRIS MN      CLOUDY    70  66  88 E13       29.94F
STAPLES        CLOUDY    64  63  94 NE7       30.02S
WHEATON        LGT RAIN  66  64  94 E9        29.96F
$$
  *****  WEATHER ELSEWHERE ACROSS MINNESOTA  *****

CITY           SKY/WX    TMP DP  RH WIND       PRES   REMARKS
DULUTH         DRIZZLE   65  61  87 E12       30.07S FOG
INTRNTL FALLS  CLOUDY    68  64  87 E6        30.09R
ELY            MOSUNNY   70  59  68 E5        30.09R
CLOQUET        CLOUDY    64  61  88 E10       30.06S
BRAINERD       CLOUDY    64  61  90 NE10      30.03F
HIBBING        CLOUDY    68  60  75 E8        30.08S
ALEXANDRIA     CLOUDY    67  64  90 E10       30.00S
SAINT CLOUD    CLOUDY    66  63  90 NE9       30.00F
MINNEAPOLIS    CLOUDY    70  67  90 E9        30.00S
$$

  *****  WEATHER ACROSS SOUTH DAKOTA  *****

CITY           SKY/WX    TMP DP  RH WIND       PRES   REMARKS
SIOUX FALLS    CLOUDY    72  69  90 E13       29.92R
BROOKINGS      NOT AVBL
WATERTOWN      CLOUDY    69  65  86 E13G21    29.93R
HURON          LGT RAIN  70  68  93 E3        29.88S
SISSETON         N/A     69  69 100 E8        29.93F
ABERDEEN       LGT RAIN  65  65 100 NE14      29.93R
MITCHELL       CLOUDY    72  69  90 SE10      29.89S
PIERRE         LGT RAIN  69  68  96 E20       29.81F
MOBRIDGE       LGT RAIN  63  63 100 E16G24    29.89S
RAPID CITY     CLOUDY    66  62  87 NE9       29.87F
$$

  *****  SOME WEATHER IN NEARBY STATES *****

CITY           SKY/WX    TMP DP  RH WIND       PRES   REMARKS
GLASGOW MT     RAIN      54  52  93 NE28G36   30.00F FOG
GREAT FALLS MT HVY RAIN  50  50 100 N17G29    30.10R FOG
CHEYENNE WY    MOSUNNY   63  51  65 VRB3      30.00S
SCOTTSBLUFF NE CLOUDY    66  62  87 SW3       29.91S
OMAHA NE       CLOUDY    77  71  82 SE9       29.88R
DES MOINES IA  CLOUDY    74  71  91 SE8       29.92R
DAVENPORT IA   TSTM      71  69  93 S8G17     30.03R VSB 1
CHICAGO IL     CLOUDY    81  73  76 CALM      29.98F HAZE
EAU CLAIRE WI  CLOUDY    70  68  93 NE6       30.00F
LA CROSSE WI   CLOUDY    76  71  85 N3        29.96F
$$

  *****  SOME NATIONAL WEATHER *****

CITY           SKY/WX    TMP DP  RH WIND       PRES   REMARKS
LA GUARDIA NY  PTSUNNY   71  60  68 NE14      30.10R
RALEIGH NC     PTSUNNY   81  70  69 E6        29.98S
ATLANTA GA     MOSUNNY   86  71  60 N10       30.04S HX  91
NEW ORLEANS LA MOSUNNY   88  76  67 N8        30.04S HX  99
OKLAHOMA CITY  SUNNY     85  62  46 SW16      29.97F
ALBUQUERQUE NM MOSUNNY   63  57  81 CALM      30.19S
SALT LAKE CITY MOSUNNY   57  48  72 S9        30.05R
LOS ANGELES CA PTSUNNY   69  60  73 N5        29.97R
BOISE ID       SUNNY     56  46  69 CALM      30.05R
SEATTLE WA     MOSUNNY   59  54  83 S3        30.16R
$$

*** WEATHER ACROSS MANITOBA...SASKATCHEWAN AND ONTARIO ***
                ***ONTARIO***

CITY           SKY/WX    TMP DP  RH WIND       PRES   REMARKS
GERALDTON      MOSUNNY   75  64  69 E3        30.13S
THUNDER BAY    MOSUNNY   72  63  73 E7        30.10S
SIOUX LOOKOUT  CLOUDY    66  63  88 VRB6      30.14R
TORONTO        CLOUDY    68  63  83 E8        30.09R
BIG TROUT LK   LGT RAIN  45  43  93 N9        30.33R FOG
PICKLE LAKE    DRIZZLE   55  52  88 NE9       30.20R
DRYDEN         CLOUDY    68  63  83 NE12      30.12R
KENORA         PTSUNNY   70  63  78 E10       30.11S
$$
                *** MANITOBA***

CITY           SKY/WX    TMP DP  RH WIND       PRES   REMARKS
BRANDON        CLOUDY    55  52  88 NE18G28   30.17R
DAUPHIN        LGT RAIN  55  54  94 NE14      30.24R FOG
ISLAND LAKE    CLOUDY    45  41  87 NE10G17   30.38R
PILOT MOUND      N/A     57  55  94 NE10        N/A
THE PAS        CLOUDY    52  45  76 NE6       30.38S
THOMPSON       PTSUNNY   48  41  76 NE10      30.47S
WINNIPEG       DRZL/FOG  59  57  94 N14       30.13S VSB 1
LYNN LAKE      CLOUDY    52  48  87 MISG      30.47S
CHURCHILL      PTSUNNY   48  37  66 N14G20    30.50S
GILLAM         MOSUNNY   50  41  71 NE12G18   30.48R
$$
                ***SASKATCHEWAN***

CITY           SKY/WX    TMP DP  RH WIND       PRES   REMARKS
ESTEVAN        DRIZZLE   54  52  94 NE14G23   30.14S FOG
KINDERSLEY     CLOUDY    54  52  94 NE10      30.27F
LLOYDMINSTER   PTSUNNY   52  45  76 N7        30.33S
PRINCE ALBERT  CLOUDY    55  52  88 E9        30.34R
REGINA         CLOUDY    54  48  82 NE17      30.21S



USA.gov is the U.S. government's official web portal to all federal, state and local government web resources and services.